Location: Boitzum
(52.1496°N, 9.6943°E)
Time: 00:06:44
(UTC+00:00)

YAOGAN 1 - Pass Details

Date: 13 January 2026
Orbit: 605 x 607 km, 97.8° (Epoch: 18 February)

Event Time Altitude Azimuth Distance (km) Brightness Sun altitude
Rises 06:40:36 0° 16° (NNE) 2,878 5.9 -6.6°
Reaches altitude 10° 06:42:48 10° 19° (NNE) 1,969 5.1 -6.3°
Maximum altitude 06:47:04 67° 102° (ESE) 664 3.0 -5.7°
Drops below altitude 10° 06:51:17 10° 185° (S) 1,951 5.5 -5.2°
Sets 06:53:28 0° 188° (S) 2,850 6.3 -4.9°
